Regional Weather Roundup
Issued by NWS

Home | Current Version | Previous Version | Graphics & Text | Print | Product List | Glossary On
Versions: 1 2 3 4 5 6 7 8 9 10 11 12 13 14 15 16 17 18 19 20 21 22 23 24 25 26 27 28 29 30 31 32 33 34 35 36 37 38 39 40 41 42 43 44 45 46 47 48 49 50
000
ASUS43 KBIS 292210
RWRND

NORTH DAKOTA REGIONAL WEATHER ROUNDUP
NATIONAL WEATHER SERVICE BISMARCK ND
500 PM CDT TUE JUL 29 2014

NOTE: "FAIR" INDICATES FEW OR NO CLOUDS BELOW 12,000 FEET WITH NO
SIGNIFICANT WEATHER AND/OR OBSTRUCTIONS TO VISIBILITY.


NDZ001>003-009>011-017-292300-
NORTHWEST NORTH DAKOTA

CITY           SKY/WX    TMP DP  RH WIND       PRES   REMARKS
WILLISTON      SUNNY     85  50  29 N12G18    30.16F
MINOT          MOSUNNY   73  64  73 E6        30.16F
MINOT AFB      MOSUNNY   75  62  64 SE7       30.15F
$$

NDZ018>021-031>035-040>046-292300-
SOUTHWEST NORTH DAKOTA

CITY           SKY/WX    TMP DP  RH WIND       PRES   REMARKS
BISMARCK       PTSUNNY   81  56  42 SW8       30.16F
DICKINSON      MOSUNNY   83  50  31 VRB5      30.14F
GARRISON         N/A     69  57  65 E14G26    30.17R
HETTINGER ARPT MOSUNNY   81  47  30 CALM      30.18F
$$

NDZ004>008-012>016-024-026-027-054-292300-
NORTHEAST NORTH DAKOTA

CITY           SKY/WX    TMP DP  RH WIND       PRES   REMARKS
GRAND FORKS    MOSUNNY   79  56  45 NW6       30.11F
GRND FRKS AFB  MOSUNNY   77  56  48 NW5       30.13F
DEVILS LAKE    MOSUNNY   75  52  43 N9        30.15S
$$

NDZ022-023-025-028>030-036>039-047>053-292300-
SOUTHEAST NORTH DAKOTA

CITY           SKY/WX    TMP DP  RH WIND       PRES   REMARKS
FARGO          MOSUNNY   80  53  39 N13G23    30.12F
JAMESTOWN      PTSUNNY   78  53  41 NE7       30.15F
$$



USA.gov is the U.S. government's official web portal to all federal, state and local government web resources and services.